Boone, NC

11:26 AM EST on December 10, 2019 (GMT -0500)
Boone

Weather History for KTNB - August, 2019

Change the Weather History Date:

Saturday, August 31, 2019

  Actual Average (KGEV) Record (KGEV)
Temperature  
Mean Temperature 64 °F -  
Max Temperature 79 °F 77 °F 89 °F (1993)
Min Temperature 50 °F 55 °F 39 °F (1976)
Growing Degree Days 14 (Base 50)    
Moisture  
Dew Point 56 °F    
Average Humidity 77    
Maximum Humidity 100    
Minimum Humidity 45    
Precipitation  
Precipitation 0.00 in - - ()
Sea Level Pressure  
Sea Level Pressure 30.30 in    
Wind  
Wind Speed 0 mph ()    
Max Wind Speed 7 mph    
Max Gust Speed -    
Visibility 8.6 miles    
Events      
Averages and records for this station are not official NWS values.
T = Trace of Precipitation, MM = Missing Value Source: Averaged Metar Reports

Daily Weather History Graph

Daily Weather History Graph

Search for Another Location

Airport or City:

Astronomy

Aug. 31, 2019 Rise Set
Actual Time 6:57 AM EDT 7:56 PM EDT
Civil Twilight 6:30 AM EDT 8:22 PM EDT
Nautical Twilight 5:59 AM EDT 8:53 PM EDT
Astronomical Twilight 5:27 AM EDT 9:25 PM EDT
Moon 8:10 AM EDT (8/31) 9:10 PM EDT (8/31)
Length of Visible Light 13h 51m
Length of Day
12h 58m
New Moon, 2% of the Moon is Illuminated
Aug 31
New Moon
Sep 5
First Quarter
Sep 14
Full
Sep 21
Last Quarter
Sep 28
New

Hourly Weather History & Observations

Time (EDT) Temp. Dew Point Humidity Pressure Visibility Wind Dir Wind Speed Gust Speed Precip Events Conditions
12:15 AM 58.1 °F 58.1 °F 100% 30.31 in 10.0 mi Calm Calm - N/A   Clear
12:35 AM 57.0 °F 57.0 °F 100% 30.31 in 7.0 mi Calm Calm - N/A   Clear
12:55 AM 56.8 °F 56.8 °F 100% 30.31 in 7.0 mi Calm Calm - N/A   Clear
1:15 AM 56.5 °F 56.5 °F 100% 30.32 in 7.0 mi Calm Calm - N/A   Clear
1:35 AM 55.8 °F 55.8 °F 100% 30.31 in 2.5 mi Calm Calm - N/A   Clear
1:55 AM 56.1 °F 56.1 °F 100% 30.30 in 7.0 mi Calm Calm - N/A   Clear
2:15 AM 54.7 °F 54.7 °F 100% 30.29 in 5.0 mi Calm Calm - N/A   Clear
2:35 AM 55.4 °F 55.4 °F 100% 30.29 in 10.0 mi Calm Calm - N/A   Clear
2:55 AM 54.3 °F 54.3 °F 100% 30.28 in 7.0 mi Calm Calm - N/A   Clear
3:15 AM 54.7 °F 54.7 °F 100% 30.28 in 7.0 mi Calm Calm - N/A   Clear
3:35 AM 53.6 °F 53.6 °F 100% 30.28 in 7.0 mi Calm Calm - N/A   Clear
4:15 AM 53.6 °F 53.6 °F 100% 30.28 in 7.0 mi Calm Calm - N/A   Clear
4:35 AM 53.8 °F 53.8 °F 100% 30.28 in 10.0 mi Calm Calm - N/A   Clear
4:55 AM 54.1 °F 54.1 °F 100% 30.28 in 10.0 mi Calm Calm - N/A   Clear
5:15 AM 52.5 °F 52.5 °F 100% 30.28 in 7.0 mi Calm Calm - N/A   Clear
5:35 AM 52.3 °F 52.3 °F 100% 30.28 in 2.0 mi Calm Calm - N/A   Clear
5:55 AM 52.0 °F 52.0 °F 100% 30.28 in 5.0 mi Calm Calm - N/A   Clear
6:15 AM 53.1 °F 53.1 °F 100% 30.29 in 7.0 mi Calm Calm - N/A   Clear
6:35 AM 52.2 °F 52.2 °F 100% 30.29 in 7.0 mi Calm Calm - N/A   Clear
6:55 AM 51.1 °F 51.1 °F 100% 30.30 in 4.0 mi Calm Calm - N/A   Clear
7:15 AM 50.9 °F 50.9 °F 100% 30.31 in 1.0 mi Calm Calm - N/A   Mist
7:35 AM 51.4 °F 51.4 °F 100% 30.32 in 7.0 mi Calm Calm - N/A   Clear
7:55 AM 52.3 °F 52.3 °F 100% 30.32 in 7.0 mi Calm Calm - N/A   Clear
8:15 AM 54.1 °F 54.1 °F 100% 30.32 in 10.0 mi Calm Calm - N/A   Clear
8:35 AM 55.6 °F 55.6 °F 100% 30.32 in 10.0 mi Calm Calm - N/A   Clear
9:15 AM 61.0 °F 59.7 °F 96% 30.32 in 10.0 mi Calm Calm - N/A   Clear
9:35 AM 64.0 °F 60.1 °F 87% 30.32 in 10.0 mi Calm Calm - N/A   Clear
9:55 AM 67.1 °F 57.7 °F 72% 30.32 in 10.0 mi Calm Calm - N/A   Clear
10:15 AM 70.9 °F 56.7 °F 61% 30.32 in 10.0 mi Calm Calm - N/A   Clear
10:35 AM 72.0 °F 53.8 °F 53% 30.32 in 10.0 mi Calm Calm - N/A   Clear
10:55 AM 73.2 °F 55.0 °F 53% 30.32 in 10.0 mi Calm Calm - N/A   Clear
11:15 AM 75.0 °F 55.8 °F 51% 30.32 in 10.0 mi Calm Calm - N/A   Clear
11:35 AM 76.1 °F 57.2 °F 52% 30.32 in 10.0 mi Calm Calm - N/A   Clear
11:55 AM 76.6 °F 57.7 °F 52% 30.32 in 10.0 mi East 6.9 mph - N/A   Clear
12:15 PM 77.0 °F 57.0 °F 50% 30.32 in 10.0 mi Calm Calm - N/A   Clear
12:35 PM 77.9 °F 56.3 °F 47% 30.32 in 10.0 mi East 5.8 mph - N/A   Clear
12:55 PM 78.8 °F 56.8 °F 47% 30.32 in 10.0 mi Calm Calm - N/A   Clear
1:15 PM 79.0 °F 57.6 °F 48% 30.32 in 10.0 mi Calm Calm - N/A   Scattered Clouds
1:35 PM 78.6 °F 57.0 °F 47% 30.32 in 10.0 mi ESE 4.6 mph - N/A   Scattered Clouds
1:55 PM 78.1 °F 56.8 °F 48% 30.32 in 10.0 mi ESE 5.8 mph - N/A   Clear
2:15 PM 79.3 °F 57.0 °F 46% 30.32 in 10.0 mi Calm Calm - N/A   Clear
2:35 PM 79.0 °F 56.8 °F 46% 30.31 in 10.0 mi Calm Calm - N/A   Clear
2:55 PM 79.3 °F 56.5 °F 45% 30.31 in 10.0 mi SE 6.9 mph - N/A   Clear
3:15 PM 77.9 °F 55.6 °F 46% 30.31 in 10.0 mi Calm Calm - N/A   Clear
3:35 PM 78.1 °F 56.7 °F 48% 30.30 in 10.0 mi Calm Calm - N/A   Clear
3:55 PM 78.3 °F 57.2 °F 48% 30.29 in 10.0 mi Calm Calm - N/A   Clear
4:15 PM 78.1 °F 56.7 °F 48% 30.29 in 10.0 mi Calm Calm - N/A   Clear
4:35 PM 77.5 °F 56.1 °F 47% 30.29 in 10.0 mi Calm Calm - N/A   Clear
4:55 PM 77.9 °F 57.2 °F 49% 30.29 in 10.0 mi Calm Calm - N/A   Clear
5:15 PM 76.6 °F 57.2 °F 51% 30.29 in 10.0 mi East 4.6 mph - N/A   Clear
5:35 PM 76.3 °F 57.0 °F 51% 30.29 in 10.0 mi Calm Calm - N/A   Clear
5:55 PM 75.9 °F 57.6 °F 53% 30.28 in 10.0 mi Calm Calm - N/A   Clear
6:15 PM 75.2 °F 57.0 °F 53% 30.28 in 10.0 mi Calm Calm - N/A   Clear
6:35 PM 74.7 °F 57.9 °F 56% 30.28 in 10.0 mi Calm Calm - N/A   Clear
6:55 PM 73.9 °F 57.6 °F 56% 30.28 in 10.0 mi Calm Calm - N/A   Clear
7:15 PM 72.9 °F 57.7 °F 59% 30.28 in 10.0 mi Calm Calm - N/A   Clear
7:35 PM 71.4 °F 57.7 °F 62% 30.29 in 10.0 mi Calm Calm - N/A   Clear
7:55 PM 68.2 °F 58.6 °F 71% 30.28 in 10.0 mi Calm Calm - N/A   Clear
8:15 PM 67.3 °F 58.8 °F 74% 30.28 in 10.0 mi Calm Calm - N/A   Clear
8:35 PM 65.8 °F 59.2 °F 79% 30.28 in 10.0 mi Calm Calm - N/A   Clear
8:55 PM 63.3 °F 58.1 °F 83% 30.29 in 10.0 mi Calm Calm - N/A   Clear
9:15 PM 63.9 °F 61.0 °F 90% 30.29 in 10.0 mi Calm Calm - N/A   Clear
9:35 PM 61.3 °F 60.3 °F 96% 30.30 in 10.0 mi Calm Calm - N/A   Clear
9:55 PM 61.9 °F 61.3 °F 98% 30.31 in 10.0 mi Calm Calm - N/A   Clear
10:15 PM 61.7 °F 61.2 °F 98% 30.31 in 10.0 mi Calm Calm - N/A   Clear
10:35 PM 60.1 °F 59.9 °F 99% 30.32 in 7.0 mi Calm Calm - N/A   Clear
10:55 PM 60.3 °F 60.3 °F 100% 30.32 in 10.0 mi Calm Calm - N/A   Clear
11:15 PM 58.8 °F 58.8 °F 100% 30.32 in 7.0 mi Calm Calm - N/A   Clear
11:35 PM 58.8 °F 58.8 °F 100% 30.32 in 5.0 mi Calm Calm - N/A   Clear
11:55 PM 57.9 °F 57.9 °F 100% 30.32 in 5.0 mi Calm Calm - N/A   Clear